Tracking 20241 objects as of 28-Jan-2020
HD Live streaming from Space Station
objects crossing your sky now

CLUSTER II-FM7

Track CLUSTER II-FM7 now!
CLUSTER II-FM7 is classified as:


NORAD ID: 26411
Int'l Code: 2000-041B
Perigee: 26,790.9 km
Apogee: 106,014.0 km
Inclination: 131.3 °
Period: 3,256.3 minutes
Semi major axis: 72773 km
RCS: 1.5887 m2 (large)
Launch date: July 16, 2000
Source: European Space Agency (ESA)
Launch site: TYURATAM MISSILE AND SPACE COMPLEX (TTMTR)
aabbcc
Your satellite tracking list
Your tracking list is empty




NASA's NSSDC Master Catalog

Two Line Element Set (TLE):
1 26411U 00041B   20022.26942426  .00000000  00000-0  00000+0 0  9999
2 26411 131.3177 341.7086 5443130 185.8231 359.0590  0.44222537 20491
Source of the keplerian elements: AFSPC